Home > Weather > Preston > Past weeks

Flag for United Kingdom Past Weather in Preston, England, United Kingdom — Yesterday and Last 2 Weeks

Now
61 °F

Light rain. Passing clouds.


Feels Like: 61 °F
Forecast: 55 / 64 °F
Wind: 10 mph from South

Location: Liverpool Airport

Current Time: Jul 27, 2016 at 2:11:18 AM

Latest Report: Jul 27, 2016 at 1:20 AM


Visibility: N/A

Pressure: 29.92 "Hg

Humidity: 94%

Dew Point: 59 °F

Location of PrestonLocation

Past Weather in Preston — Graph

°F

Preston Temperature Yesterday

Maximum temperature yesterday: 66 °F (at 1:20 PM)
Minimum temperature yesterday: 59 °F (at 12:20 AM)
Average temperature yesterday: 63 °F

High & Low Weather Summary for the Past Weeks

 TemperatureHumidityPressure
High86 °F (Jul 19, 5:20 PM)100% (Jul 12, 12:50 AM)30.30 "Hg (Jul 12, 12:50 AM)
Low52 °F (Jul 13, 2:50 AM)45% (Jul 19, 2:50 PM)29.68 "Hg (Jul 20, 5:50 AM)
Average64 °F79%30.06 "Hg
* Reported Jul 12 12:20 AM — Jul 27 12:50 AM, Preston, Weather by CustomWeather, © 2016

Note: Actual official high and low records may vary slightly from our data, if they occured in-between our weather recording intervals... More about our weather records

Advertising

Preston Weather History for the Previous 24 Hours

Scroll right to see more
 ConditionsComfort  
Time TempWeatherWind HumidityBarometerVisibility
12:50 AM
Wed, Jul 27
63 °FLight rain. Passing clouds.8 mph94%29.92 "HgN/A
12:20 AM61 °FLight rain. Passing clouds.7 mph94%29.95 "HgN/A
11:50 PM
Tue, Jul 26
61 °FLight rain. Passing clouds.12 mph94%29.95 "HgN/A
11:20 PM63 °FLight rain. Partly cloudy.9 mph88%29.95 "HgN/A
10:50 PM63 °FPartly cloudy.6 mph83%29.98 "HgN/A
10:20 PM63 °FPassing clouds.10 mph83%29.98 "HgN/A
9:50 PM63 °FPartly sunny.9 mph77%30.01 "HgN/A
9:20 PM64 °FPartly sunny.9 mph78%30.01 "HgN/A
8:50 PM64 °FScattered clouds.15 mph73%30.01 "HgN/A
8:20 PM64 °FScattered clouds.10 mph78%30.01 "HgN/A
7:50 PM64 °FScattered clouds.12 mph78%30.04 "HgN/A
7:20 PM64 °FScattered clouds.13 mph78%30.04 "HgN/A
6:50 PM64 °FScattered clouds.10 mph78%30.04 "HgN/A
6:20 PM64 °FScattered clouds.13 mph78%30.04 "HgN/A
5:50 PM66 °FPassing clouds.13 mph68%30.04 "HgN/A
5:20 PM64 °FPassing clouds.17 mph78%30.07 "HgN/A
4:50 PM66 °FPassing clouds.14 mph68%30.07 "HgN/A
4:20 PM66 °FScattered showers. Passing clouds.12 mph68%30.07 "HgN/A
3:50 PM64 °FScattered clouds.13 mph68%30.07 "HgN/A
3:20 PM66 °FScattered clouds.14 mph64%30.09 "HgN/A
2:50 PM66 °FScattered clouds.16 mph68%30.09 "HgN/A
2:20 PM66 °FPartly sunny.14 mph68%30.09 "HgN/A
1:50 PM66 °FScattered clouds.14 mph64%30.09 "HgN/A
1:20 PM66 °FScattered clouds.13 mph68%30.09 "HgN/A
12:50 PM64 °FScattered clouds.10 mph73%30.09 "HgN/A
12:20 PM64 °FScattered showers. Scattered clouds.12 mph73%30.09 "HgN/A
11:50 AM64 °FScattered showers. Scattered clouds.12 mph73%30.09 "HgN/A
11:20 AM64 °FRain showers. Broken clouds.10 mph73%30.09 "HgN/A
10:50 AM64 °FPartly sunny.8 mph73%30.12 "HgN/A
10:20 AM63 °FScattered clouds.6 mph73%30.12 "HgN/A
9:50 AM63 °FPassing clouds.5 mph73%30.12 "HgN/A
9:20 AM63 °FPassing clouds.6 mph73%30.12 "HgN/A
8:50 AM61 °FPassing clouds.3 mph77%30.12 "HgN/A
8:20 AM61 °FPassing clouds.7 mph77%30.12 "HgN/A
7:50 AM61 °FPassing clouds.8 mph83%30.12 "HgN/A
7:20 AM59 °FPassing clouds.8 mph88%30.12 "HgN/A
6:50 AM59 °FPassing clouds.10 mph88%30.12 "HgN/A
6:20 AM59 °FPassing clouds.9 mph88%30.09 "HgN/A
5:50 AM59 °FPassing clouds.6 mph88%30.09 "HgN/A
5:20 AM59 °FPassing clouds.8 mph88%30.09 "HgN/A
4:50 AM59 °FPassing clouds.8 mph88%30.09 "HgN/A
4:20 AM59 °FPassing clouds.9 mph88%30.09 "HgN/A
3:50 AM59 °FPassing clouds.6 mph88%30.09 "HgN/A
3:20 AM59 °FPassing clouds.3 mph88%30.09 "HgN/A
2:50 AM59 °FPassing clouds.7 mph88%30.09 "HgN/A
2:20 AM61 °FPassing clouds.6 mph83%30.09 "HgN/A
Weather by CustomWeather, © 2016

See weather overviewHow to use our weather pages